Zurück zum Katalog

STARLINK-2506

AktivKommunikationVLEO
NORAD 48315·PAYLOAD·🇺🇸 United States

Gestartet Apr 29, 2021 von Cape Canaveral Space Force Station

Loading…

Nächste Überflüge (nächste 24 Stunden)

TLE

AktuellSource: CelesTrak SupGP

Epoche: Sep 14, 2026, 20:58 UTC

1 48315C 21036AR  26257.87409722  .00003169  00000+0  10189-3 0  2571
2 48315  53.1567 298.5118 0001058  97.6773 237.5802 15.31703433    15

Verfolge STARLINK-2506 in Echtzeit mit AllMySat

Download on the App Store